Regional Weather Roundup
Issued by NWS

Home | Current Version | Previous Version | Graphics & Text | Print | Product List | Glossary On
Versions: 1 2 3 4 5 6 7 8 9 10 11 12 13 14 15 16 17 18 19 20 21 22 23 24 25 26 27 28 29 30 31 32 33 34 35 36 37 38 39 40 41 42 43 44 45 46 47 48 49 50
000
ASUS43 KMKX 020221
RWRWI

WISCONSIN REGIONAL WEATHER ROUNDUP
NATIONAL WEATHER SERVICE MILWAUKEE/SULLIVAN WI
900 PM CDT FRI AUG 01 2014

NOTE: "FAIR" INDICATES FEW OR NO CLOUDS BELOW 12,000 FEET WITH NO
SIGNIFICANT WEATHER AND/OR OBSTRUCTIONS TO VISIBILITY.

WIZ001-002-006>008-014>016-023>028-020300-
NORTHWEST WISCONSIN

CITY           SKY/WX    TMP DP  RH WIND       PRES   REMARKS
SUPERIOR ARPT  PTCLDY    56  53  91 NE6       30.08R
ASHLAND        CLEAR     59  58  96 NE3       30.09R
HAYWARD        CLEAR     68  63  84 CALM      30.09R
SIREN          PTCLDY    69  63  82 CALM      30.07R
RICE LAKE      PTCLDY    67  61  79 CALM      30.10R
LADYSMITH      CLEAR     69  60  72 E3        30.12R
EAU CLAIRE     CLEAR     70  65  84 CALM      30.06S
MENOMONIE      CLEAR     70  62  74 CALM      30.08R
NEW RICHMOND   PTCLDY    71  60  67 E3        30.07S
OSCEOLA        PTCLDY    72  64  76 E3        30.08R
$$

WIZ003>005-009-010-017-018-020300-
NORTH CENTRAL WISCONSIN

CITY           SKY/WX    TMP DP  RH WIND       PRES   REMARKS
WOODRUFF       CLEAR     62  50  65 CALM      30.13R
RHINELANDER    CLEAR     63  55  75 CALM      30.12R
EAGLE RIVER    CLEAR     60  55  82 CALM      30.12R
LAND O LAKES   CLEAR     57  56  94 CALM      30.13S
PHILLIPS       PTCLDY    61  58  90 CALM      30.11S
TOMAHAWK       CLEAR     60  57  91 CALM      30.12R
MEDFORD        CLEAR     64  60  85 S3        30.11S
MERRILL        PTCLDY    67  60  79 W6        30.10S
$$

WIZ029-030-035-036-043>047-020300-
CENTRAL WISCONSIN

CITY           SKY/WX    TMP DP  RH WIND       PRES   REMARKS
WAUSAU         PTCLDY    66  60  81 W5        30.08S
MOSINEE        PTCLDY    64  59  82 CALM      30.11
MARSHFIELD     PTCLDY    63  60  90 SW5       30.09S
STEVENS POINT  MOCLDY    61  58  88 CALM      30.10S
WAUPACA        MOCLDY    65  57  75 W3        30.09R
WAUTOMA        PTCLDY    60  59  97 CALM      30.09S FOG
WISC RAPIDS    PTCLDY    60  57  89 SW3       30.11R
CAMP DOUGLAS   CLOUDY    63  62  96 VRB5      30.09F
$$

WIZ011>013-019>022-031-037>040-048>050-020300-
NORTHEAST WISCONSIN

CITY           SKY/WX    TMP DP  RH WIND       PRES   REMARKS
ANTIGO         PTCLDY    63  60  88 CALM      30.10S
STURGEON BAY   MOCLDY    64  57  77 CALM      30.09R
GREEN BAY      MOCLDY    68  63  84 W5        30.08R
MANITOWOC      MOCLDY    64  62  93 CALM      30.08R
APPLETON       MOCLDY    66  61  82 VRB5      30.09R
CLINTONVILLE   MOCLDY    61  57  88 CALM      30.09R
OSHKOSH        CLOUDY    65  63  93 CALM      30.08R
$$

WIZ032>034-041-042-053>061-020300-
SOUTHWEST WISCONSIN

CITY           SKY/WX    TMP DP  RH WIND       PRES   REMARKS
LA CROSSE      MOCLDY    74  61  63 E12       30.07R
SPARTA         CLOUDY    68  56  64 N9        30.10S
VIROQUA        FAIR      69  52  54 SE10      30.11R
BOSCOBEL       PTCLDY    72  51  47 VRB3      30.10R
PRAIRIE DU CHI CLEAR     72  61  68 CALM      30.07R
PLATTEVILLE    FAIR      70  54  58 E10       30.11R
$$

WIZ056-057-062-063-064-067-068-020300-
SOUTH CENTRAL WISCONSIN

CITY           SKY/WX    TMP DP  RH WIND       PRES   REMARKS
BARABOO/DELLS  RAIN      64  55  72 CALM      30.11R
LONE ROCK      MOCLDY    69  57  65 CALM      30.10S
WATERTOWN      CLOUDY    64  57  78 E9        30.07R
MADISON        CLOUDY    63  57  81 W5        30.07F
MIDDLETON      FAIR      63  57  82 NW3       30.09F
MONROE         MOCLDY    64  55  72 E8        30.12R
JANESVILLE     CLOUDY    66  57  72 SE10      30.11R
$$

WIZ051-052-058>065-066-070>072-020300-
SOUTHEAST WISCONSIN

CITY           SKY/WX    TMP DP  RH WIND       PRES   REMARKS
MILWAUKEE      CLOUDY    65  57  75 SW12      30.10S
WAUKESHA       NOT AVBL
MILWAUKEE/TIMM CLEAR     63  57  82 SW9       30.11
RACINE         LGT RAIN  64  58  80 S6        30.12F
BURLINGTON     HVY RAIN  59  57  94 S8        30.15R
KENOSHA        TSTM      64  56  75 N16G22    30.13F
FOND DU LAC    CLOUDY    64  58  80 S6        30.09R
SHEBOYGAN      MOCLDY    66  58  75 SW8       30.09R
WEST BEND      CLOUDY    64  54  68 S5        30.10S
JUNEAU         CLOUDY    65  51  59 E8        30.09R
$$

LSZ147-162-020300-
LAKE SUPERIOR

STATION/POSITION TIME  TEMP    WIND        PRES    WAVE
                       AIR SEA DIR/SP/G            HT/PER
                 (UTC) (F)     (DEG/KT/KT) (MB)    (FT/S)
W MID LAKE BUOY  0150   50 47   30/  4/  6 1019.4R   0
PORT WING        0140   60      30/  9/ 12 1018.3R
SAXON HARBOR     0100             CALM     1018.6
$$

LMZ867-665-643>646-020300-
LAKE MICHIGAN

STATION/POSITION TIME  TEMP    WIND        PRES    WAVE
                       AIR SEA DIR/SP/G            HT/PER
                 (UTC) (F)     (DEG/KT/KT) (MB)    (FT/S)
N MID LAKE BUOY  0150   62 60   CALM  /  2 1018.7R   0
NORTHPORT PIER   0100   65     160/  4/  6 1018.3R
ALGOMA LAKESHORE 0136             CALM       N/A
KEWAUNEE LAKESHO 0200   60     160/  6/  6 1017.7R
SHEBOYGAN LAKESH 0200   71     240/  7/  7 1018.5R
PORT WASHINGTON  0140   68     270/  7/ 11 1019.0R
ATWATER BUOY     0200   66     230/ 10     1020.0R
MILWAUKEE LAKESH 0200   67     270/ 12/ 17   N/A
S MID LAKE BUOY  0150   67 65  240/  4/  4 1019.0R   0
KENOSHA   LAKESH 0200   66     310/  8/ 15 1020.0R
$$

TC  - TEMPERATURE IN CELSIUS
VSB - VISIBILITY IN STATUTE MILES
WCI - WIND CHILL INDEX
HX  - HEAT INDEX




USA.gov is the U.S. government's official web portal to all federal, state and local government web resources and services.